Flag for Germany Weather past 2 weeks in Itzehoe, Schleswig-Holstein, Germany

Now
41 °F

Quite cool.


Feels Like: 37 °F
Forecast: 38 / 48 °F
Wind: 6 mph from Southeast

Location: Hohn

Current Time: Mar 27, 2015 at 4:40:44 AM

Latest Report: Mar 27, 2015 at 3:20 AM


Visibility: 4 mi

Pressure: 29.68 "Hg

Humidity: 87%

Dew point: 37 °F

Location of ItzehoeLocation

Historic Weather in Itzehoe — Graph

°F

Itzehoe temperature yesterday

Maximum temperature yesterday: 46 °F (at 12:20 PM)
Minimum temperature yesterday: 39 °F (at 6:20 AM)
Average temperature yesterday: 42 °F

Past Weeks' High & Low Weather Summary

 TemperatureHumidityPressure
High57 °F (Mar 18, 1:20 PM)100% (Mar 12, 2:03 AM)30.54 "Hg (Mar 12, 2:03 AM)
Low27 °F (Mar 13, 2:20 AM)25% (Mar 19, 2:20 PM)29.65 "Hg (Mar 26, 3:20 AM)
Average41 °F77%30.21 "Hg
* Reported Mar 12 2:03 AM — Mar 27 2:20 AM, Itzehoe, Weather by CustomWeather, © 2015

Note: Actual official high and low records may vary slightly from our data, if they occured in-between our weather recording intervals... More about our weather records

Advertising

Itzehoe weather history for previous 24 hours

 ConditionsComfort  
Time TempWeatherWind HumidityBarometerVisibility
2:20 AM
Fri, Mar 27
41 °FQuite cool.6 mph81%29.68 "Hg4 mi
1:20 AM41 °FQuite cool.6 mph81%29.68 "Hg5 mi
12:20 AM41 °FQuite cool.5 mph81%29.68 "Hg5 mi
11:20 PM
Thu, Mar 26
41 °FQuite cool.3 mph76%29.71 "Hg6 mi
10:20 PM41 °FQuite cool.6 mph70%29.71 "HgN/A
9:20 PM41 °FQuite cool.3 mph76%29.71 "HgN/A
8:20 PM43 °FQuite cool.2 mph71%29.71 "HgN/A
7:20 PM41 °FPassing clouds.No wind81%29.71 "HgN/A
6:20 PM43 °FPartly sunny.1 mph71%29.71 "HgN/A
5:20 PM45 °FPartly sunny.3 mph66%29.71 "HgN/A
4:20 PM45 °FPartly sunny.3 mph57%29.71 "HgN/A
3:20 PM46 °FPartly sunny.8 mph57%29.71 "HgN/A
2:20 PM45 °FPartly sunny.9 mph61%29.71 "HgN/A
1:20 PM46 °FPartly sunny.10 mph57%29.71 "HgN/A
12:20 PM46 °FPartly sunny.10 mph62%29.71 "HgN/A
11:20 AM45 °FPartly sunny.9 mph66%29.71 "HgN/A
10:20 AM43 °FPartly sunny.10 mph71%29.71 "HgN/A
9:20 AM41 °FPartly sunny.7 mph81%29.71 "HgN/A
8:20 AM39 °FPartly sunny.7 mph87%29.71 "HgN/A
7:20 AM39 °FPartly sunny.14 mph87%29.71 "HgN/A
6:20 AM39 °FFog.12 mph93%29.68 "Hg3 mi
5:20 AM41 °FFog.10 mph93%29.68 "Hg2 mi
4:20 AM41 °FQuite cool.13 mph93%29.65 "Hg2 mi
Weather by CustomWeather, © 2015

See weather overviewHow to use our weather pages